User: anonymous   Login
Location: ?????????
(38.5999°N, 22.7695°E)
Time: 20:02:02
(UTC+00:00)
Language:

CZ-2C R/B - Orbit

View from above orbital plane
View from above orbital plane
View from above satellite
View from above satellite

Ground track
Ground track

The orbit data is extracted from the following two-line orbital elements,

1 31114U 07010B   24201.88475858  .00000384  00000-0  19701-3 0  9996
2 31114  98.3367 336.0490 0058472 232.5362 127.0489 14.19815664894885
Epoch (UTC): 19 July 2024 21:14:03
Eccentricity: 0.0058472
inclination: 98.3367°
perigee height: 784 km
apogee height: 868 km
right ascension of ascending node: 336.0490°
argument of perigee: 232.5362°
revolutions per day: 14.19815664
mean anomaly at epoch: 127.0489°
orbit number at epoch: 89488

The dashed part of the orbit path shows where the satellite is in the earth's shadow,  

DLR